Regional Weather Roundup
Issued by NWS

Home | Current Version | Previous Version | Text Only | Print | Product List | Glossary On
Versions: 1 2 3 4 5 6 7 8 9 10 11 12 13 14 15 16 17 18 19 20 21 22 23 24 25 26 27 28 29 30 31 32 33 34 35 36 37 38 39 40 41 42 43 44 45 46 47 48 49 50
000
ASUS43 KMKX 031300
RWRWI

WISCONSIN REGIONAL WEATHER ROUNDUP
NATIONAL WEATHER SERVICE MILWAUKEE/SULLIVAN WI
800 AM CDT THU SEP 03 2015

NOTE: "FAIR" INDICATES FEW OR NO CLOUDS BELOW 12,000 FEET WITH NO
SIGNIFICANT WEATHER AND/OR OBSTRUCTIONS TO VISIBILITY.

WIZ001-002-006>008-014>016-023>028-031400-
NORTHWEST WISCONSIN

CITY           SKY/WX    TMP DP  RH WIND       PRES   REMARKS
SUPERIOR ARPT  FOG       59  59 100 NE5       29.98R VSB 1/2
ASHLAND        FOG       61  61 100 NE3       29.99S VSB 1/4
HAYWARD        CLOUDY    63  62  97 NE5       29.98S FOG
SIREN          FOG       63  63  97 E5        29.96S VSB 1/2
CUMBERLAND     SUNNY     63  61  94 CALM      29.96S FOG
RICE LAKE      MOSUNNY   63  62  97 CALM      29.97S FOG
CHETEK         CLOUDY   N/A N/A N/A E5        29.96R FOG
LADYSMITH      CLOUDY    65  64  97 E7        30.00R FOG
EAU CLAIRE     NOT AVBL
MENOMONIE      FOG       68  67  99 NE3       29.93S VSB 1/4
NEW RICHMOND   FOG       67  67  99 CALM      29.94R VSB 1
OSCEOLA        MOSUNNY   67  67 100 CALM      29.96R FOG
$$

WIZ003>005-009-010-017-018-031400-
NORTH CENTRAL WISCONSIN

CITY           SKY/WX    TMP DP  RH WIND       PRES   REMARKS
MANITOWISH WTR FOG       60  60 100 CALM      30.01R VSB<1/4
ARBOR VITAE    CLOUDY    63  62  96 CALM      30.00S FOG
WOODRUFF       CLOUDY    63  62  96 CALM      30.00S FOG
RHINELANDER    CLOUDY    65  62  90 NE5       30.00S
EAGLE RIVER    SUNNY     63  63  99 NE3       30.00R
LAND O LAKES   SUNNY     61  61 100 CALM      30.01S
PHILLIPS       CLOUDY    64  63  97 NE3       29.99S
TOMAHAWK       CLOUDY    64  62  94 NE5       30.00R
MEDFORD        CLOUDY    63  63 100 NE5       29.99R FOG
MERRILL        CLOUDY    65  65 100 N5        29.98S
$$

WIZ029-030-035-036-043>047-031400-
CENTRAL WISCONSIN

CITY           SKY/WX    TMP DP  RH WIND       PRES   REMARKS
WAUSAU         CLOUDY    66  64  93 N5        29.95S
MOSINEE        NOT AVBL
MARSHFIELD     FOG       66  63  90 NE8       29.96S VSB 1
STEVENS POINT  CLOUDY    64  63  99 NE10      29.96S
WAUPACA        CLOUDY    68  68  98 N6        29.95R
WAUTOMA        CLOUDY    70  70 100 N7        29.94R FOG
WISC RAPIDS    CLOUDY    67  65  93 NE6       29.96R FOG
CAMP DOUGLAS   NOT AVBL
$$

WIZ011>013-019>022-031-037>040-048>050-031400-
NORTHEAST WISCONSIN

CITY           SKY/WX    TMP DP  RH WIND       PRES   REMARKS
ANTIGO         CLOUDY    64  64 100 NE9       29.98R FOG
SHAWANO        NOT AVBL
OCONTO         CLOUDY    66  66 100 N6        29.91R
STURGEON BAY   CLOUDY    66  63  88 NW6       29.92S VSB 1/4
GREEN BAY      CLOUDY    69  66  90 NW9       29.92S
MANITOWOC      NOT AVBL
APPLETON       CLOUDY    66  66 100 NW8       29.93R FOG
CLINTONVILLE   CLOUDY    66  64  94 N7        29.94S
OSHKOSH        CLOUDY    70  68  93 N9        29.93R
$$

WIZ032>034-041-042-053>061-031400-
SOUTHWEST WISCONSIN

CITY           SKY/WX    TMP DP  RH WIND       PRES   REMARKS
LA CROSSE      SUNNY     72  69  90 CALM      29.92R FOG
SPARTA         MOSUNNY   64  63  96 CALM      29.94R
VIROQUA          N/A     68  68 100 CALM      29.95R
BOSCOBEL       SUNNY     71  69  93 CALM      29.93R FOG
PRAIRIE DU CHI SUNNY     71  68  91 CALM      29.91S
PLATTEVILLE    SUNNY     71  69  95 S3        29.95R
$$

WIZ056-057-062-063-064-067-068-031400-
SOUTH CENTRAL WISCONSIN

CITY           SKY/WX    TMP DP  RH WIND       PRES   REMARKS
REEDSBURG      SUNNY     69  68  98 CALM      29.94R FOG
BARABOO/DELLS  SUNNY     69  67  92 CALM      29.94S
LONE ROCK      MOSUNNY   69  66  90 CALM      29.94R FOG
MINERAL POINT  SUNNY     72  70  94 CALM      29.95R
MADISON        MOSUNNY   74  68  81 VRB3      29.93S
MIDDLETON      SUNNY     72  71  99 CALM      29.94S
WATERTOWN      MOSUNNY   69  69 100 CALM      29.93R FOG
MONROE         SUNNY     70  68  94 SW8       29.96R
JANESVILLE     MOSUNNY   73  70  88 CALM      29.94S
$$

WIZ051-052-058>065-066-070>072-031400-
SOUTHEAST WISCONSIN

CITY           SKY/WX    TMP DP  RH WIND       PRES   REMARKS
MILWAUKEE      PTSUNNY   74  67  78 SW9       29.92R
WAUKESHA       MOSUNNY   70  66  88 SW6       29.95R
MILWAUKEE/TIMM SUNNY     73  66  78 W7        29.94R
RACINE         MOSUNNY   74  67  78 SW8       29.94S
BURLINGTON     SUNNY     68  67  96 CALM      29.94S FOG
KENOSHA        MOSUNNY   75  69  81 SW12      29.94S
FOND DU LAC    CLOUDY    73  69  87 W5        29.92R
SHEBOYGAN      CLOUDY    72  70  93 W5        29.91R FOG
WEST BEND      PTSUNNY   70  66  88 SW3       29.93R
JUNEAU         MOSUNNY   68  67  97 CALM      29.94S FOG
$$

LSZ147-162-031400-
LAKE SUPERIOR

STATION/POSITION TIME  TEMP    WIND        PRES    WAVE
                       AIR SEA DIR/SP/G            HT/PER
                 (UTC) (F)     (DEG/KT/KT) (MB)    (FT/S)
W MID LAKE BUOY  1150   58 56   60/  6/  8 1015.2R   0
DEVILS ISLAND    1200   58      70/  6/  7 1015.4R
PORT WING        1200   59      50/  5/  6 1015.2R
SAXON HARBOR     1200   60        CALM     1014.9R
$$

LMZ867-665-643>646-031400-
LAKE MICHIGAN

STATION/POSITION TIME  TEMP    WIND        PRES    WAVE
                       AIR SEA DIR/SP/G            HT/PER
                 (UTC) (F)     (DEG/KT/KT) (MB)    (FT/S)
CHAMBERS ISLAND  1200   66      30/ 10/ 12 1012.9R
S GREEN BAY BUOY 1200   67 66  340/ 10/ 12 1014.0R
N MID LAKE BUOY  1150   67 66  110/ 19/ 23 1012.1R   3/ 4
NORTHPORT PIER   1200   66      80/ 11/ 13 1013.2R
SISTER BAY       1211   66     100/  4/ 11   N/A
ALGOMA LAKESHORE 1214          330/  6/  8   N/A
KEWAUNEE LAKESHO 1200   65     320/  5/  8 1011.7R
SHEBOYGAN LAKESH 1200   71     230/  7/  7 1012.3R
PORT WASHINGTON  1100   62     170/  2/  6 1013.2S
ATWATER BUOY     1230   65     260/  6/  6 1014.6R
MILWAUKEE LAKESH 1210   75     240/ 11/ 13   N/A
S MID LAKE BUOY  1250   73 71  220/ 12/ 14 1012.5F   1
KENOSHA   LAKESH 1200   75     230/  7/ 10 1013.5R
$$

TC  - TEMPERATURE IN CELSIUS
VSB - VISIBILITY IN STATUTE MILES
WCI - WIND CHILL INDEX
HX  - HEAT INDEX




USA.gov is the U.S. government's official web portal to all federal, state and local government web resources and services.